[[{"header":{"parameterUnit":"m.s-1","parameterCategory":1,"la1":30.2992,"la2":30.254,"lo1":-89.0895,"lo2":-89.0443,"dy":0.0025,"dx":0.0025,"nx":19,"ny":19,"refTime":"2026-04-24T09:00:00:Z","depth":0,"parameterNumber":2,"parameterNumberName":"U-component_of_WINDS"},"data":[0,0,0,-2.676,-2.6761,-2.6839,-2.6839,-2.693,-2.6931,0,0,0,0,0,0,0,0,0,0,0,-2.6733,-2.6734,-2.6759,-2.6761,-2.6839,-2.6839,-2.693,-2.6931,0,0,0,0,0,0,0,0,0,0,0,-2.6733,-2.6734,-2.6734,-2.6762,-2.6839,-2.6839,-2.693,-2.6874,0,0,0,0,0,0,0,0,0,0,-2.68,-2.6773,-2.6733,-2.6734,-2.6762,-2.6839,-2.6839,-2.6871,-2.6877,-2.6892,0,-2.6906,0,-2.692,-2.6937,-2.6937,0,0,0,-2.6763,-2.6768,-2.6792,-2.6734,-2.6763,-2.6839,-2.6805,-2.6875,-2.6882,-2.69,-2.6907,-2.6911,-2.6921,-2.6937,-2.6938,-2.7018,-2.7018,0,0,-2.6759,-2.6745,-2.6787,-2.6796,-2.6785,-2.6802,-2.6807,-2.6879,-2.6885,-2.6907,-2.6913,-2.6923,-2.6938,-2.6939,-2.7017,-2.7018,0,0,0,-2.6745,-2.6742,-2.6765,-2.6792,-2.6807,-2.6804,-2.681,-2.6882,-2.6891,-2.6914,-2.6924,-2.6938,-2.694,-2.7017,-2.7018,-2.7017,0,0,0,-2.6743,-2.6734,-2.6763,-2.6755,-2.6805,-2.6846,-2.6811,-2.6886,-2.6894,-2.6924,-2.6938,-2.694,-2.7017,-2.7017,-2.7016,-2.7018,0,0,0,-2.6729,-2.6732,-2.6743,-2.6754,-2.6787,-2.6845,-2.6858,-2.6888,-2.69,-2.6937,-2.6941,-2.7017,-2.7017,-2.7016,-2.7017,-2.7034,0,0,0,-2.671,-2.6741,-2.6742,-2.6781,-2.6786,-2.6845,-2.6857,-2.6902,-2.6933,-2.6939,-2.7017,-2.7017,-2.7015,-2.7017,-2.7033,-2.7044,-2.7048,0,0,-2.6741,-2.6744,-2.6768,-2.6772,-2.6826,-2.6834,-2.6888,-2.693,-2.6946,-2.6992,-2.6995,-2.7016,-2.7017,-2.7034,-2.7076,-2.7079,0,0,0,-2.6773,-2.679,-2.6807,-2.6837,-2.6871,-2.6899,-2.6934,-2.6949,-2.699,-2.6968,-2.7028,-2.7029,-2.7039,-2.7045,-2.7047,-2.7056,-2.702,-2.702,-2.702,-2.6796,-2.6815,-2.6855,-2.6883,-2.6912,-2.6948,-2.6972,-2.6999,-2.701,-2.7023,-2.7037,-2.7061,-2.7067,-2.7069,-2.7078,-2.7046,-2.7046,-2.7046,-2.7046,-2.6841,-2.6867,-2.6881,-2.6924,-2.6944,-2.698,-2.7015,-2.7022,-2.7057,-2.7052,-2.7062,-2.7054,-2.7071,-2.708,-2.7046,-2.7046,-2.7046,-2.7046,-2.7046,-2.6857,-2.6872,-2.6891,-2.6936,-2.6967,-2.6995,-2.7028,-2.7045,-2.7061,-2.7071,-2.7085,-2.7086,-2.7086,-2.7077,-2.7077,-2.7077,-2.7077,-2.7077,-2.7077,-2.6864,-2.6886,-2.6912,-2.695,-2.6971,-2.7,-2.7036,-2.7056,-2.7083,-2.7092,-2.7093,-2.7101,-2.707,-2.7061,-2.7079,-2.7078,-2.7078,-2.7078,-2.7078,-2.69,-2.6895,-2.6936,-2.6956,-2.7001,-2.703,-2.7052,-2.7092,-2.7111,-2.7127,-2.7133,-2.7109,-2.7112,-2.7111,-2.7103,-2.713,-2.713,-2.713,-2.713,-2.6912,-2.6916,-2.6961,-2.6993,-2.7026,-2.7049,-2.7092,-2.712,-2.7148,-2.7161,-2.716,-2.7152,-2.7149,-2.7154,-2.7152,-2.7145,-2.7182,-2.7182,-2.7182,-2.6934,-2.6942,-2.6976,-2.7004,-2.704,-2.707,-2.7111,-2.7145,-2.7176,-2.7184,-2.717,-2.7168,-2.7156,-2.7151,-2.7157,-2.7153,-2.7141,0,0]},{"header":{"parameterUnit":"m.s-1","parameterCategory":1,"la1":30.2992,"la2":30.254,"lo1":-89.0895,"lo2":-89.0443,"dy":0.0025,"dx":0.0025,"nx":19,"ny":19,"refTime":"2026-04-24T09:00:00:Z","depth":0,"parameterNumber":3,"parameterNumberName":"V-component_of_WINDS"},"data":[0,0,0,3.198,3.1982,3.2035,3.2036,3.2118,3.2119,0,0,0,0,0,0,0,0,0,0,0,3.1974,3.1975,3.198,3.1982,3.2035,3.2036,3.2118,3.2119,0,0,0,0,0,0,0,0,0,0,0,3.1974,3.1975,3.1976,3.1982,3.2035,3.2036,3.2118,3.2072,0,0,0,0,0,0,0,0,0,0,3.2017,3.2022,3.1975,3.1976,3.1982,3.2035,3.2036,3.207,3.2075,3.21,0,3.2127,0,3.2125,3.2126,3.2126,0,0,0,3.1974,3.2017,3.2023,3.1976,3.1983,3.2035,3.2009,3.2072,3.2078,3.2108,3.2128,3.2131,3.2126,3.2126,3.2127,3.2305,3.2306,0,0,3.1971,3.1989,3.2019,3.2028,3.2022,3.2007,3.2011,3.2076,3.2099,3.2128,3.2132,3.2128,3.2127,3.2128,3.2304,3.2305,0,0,0,3.1968,3.1987,3.1991,3.2025,3.2034,3.2009,3.2013,3.2096,3.2096,3.2133,3.2129,3.2128,3.2129,3.2303,3.2304,3.2382,0,0,0,3.1966,3.1985,3.199,3.2001,3.2033,3.2066,3.2032,3.2091,3.2098,3.2128,3.2128,3.213,3.2301,3.2304,3.2377,3.2415,0,0,0,3.1967,3.1985,3.1997,3.2002,3.2026,3.2064,3.2067,3.2092,3.2095,3.2126,3.213,3.23,3.2303,3.2372,3.2407,3.2467,0,0,0,3.1974,3.2063,3.1998,3.2097,3.2026,3.2113,3.2067,3.213,3.2165,3.2128,3.2301,3.2304,3.2371,3.2403,3.2462,3.252,3.2546,0,0,3.2097,3.2079,3.2135,3.2079,3.2182,3.2103,3.2216,3.2231,3.2217,3.2276,3.228,3.2378,3.2407,3.2466,3.2687,3.2707,0,0,0,3.218,3.2221,3.2244,3.228,3.2295,3.2311,3.2307,3.2312,3.2362,3.2252,3.2416,3.2432,3.2466,3.2493,3.251,3.2538,3.2318,3.2317,3.2317,3.2378,3.2357,3.2449,3.2435,3.2471,3.2467,3.2493,3.25,3.2466,3.2506,3.2523,3.2659,3.2691,3.2704,3.2734,3.2552,3.2552,3.2553,3.2553,3.2556,3.261,3.2566,3.264,3.2617,3.2678,3.2678,3.2653,3.2705,3.2644,3.2673,3.2608,3.2728,3.2752,3.2559,3.2558,3.2557,3.2556,3.2556,3.2682,3.2704,3.2712,3.2762,3.2804,3.2786,3.2839,3.2816,3.2794,3.2823,3.2838,3.2837,3.2832,3.2832,3.2833,3.2833,3.2834,3.2834,3.2834,3.281,3.2816,3.2864,3.289,3.291,3.2934,3.2933,3.2952,3.2967,3.2945,3.2945,3.2908,3.2744,3.2703,3.2841,3.284,3.2839,3.2839,3.2838,3.2996,3.2951,3.3026,3.3047,3.3075,3.3118,3.3089,3.313,3.3142,3.317,3.3127,3.301,3.2989,3.2975,3.294,3.3132,3.3132,3.3132,3.3132,3.3102,3.309,3.3162,3.3198,3.323,3.3212,3.3297,3.3297,3.3289,3.3295,3.3264,3.3217,3.3204,3.3191,3.3172,3.3139,3.3377,3.3377,3.3378,3.3215,3.3205,3.3282,3.3277,3.3298,3.3315,3.3395,3.3436,3.3418,3.3387,3.33,3.3289,3.3213,3.3189,3.3155,3.3126,3.3066,0,0]}]]